Regional Weather Roundup
Issued by NWS Cleveland, OH

Home | Current Version | Previous Version | Text Only | Print | Product List | Glossary Off
Versions: 1 2 3 4 5 6 7 8 9 10 11 12 13 14 15 16 17 18 19 20 21 22 23 24 25 26 27 28 29 30 31 32 33 34 35 36 37 38 39 40 41 42 43 44 45 46 47 48 49 50

000
ASUS41 KCLE 251100
RWRCLE
OHIO REGIONAL WEATHER ROUNDUP
NATIONAL WEATHER SERVICE WILMINGTON, OH
700 AM EDT MON MAY 25 2015

NOTE: "FAIR" INDICATES FEW OR NO CLOUDS BELOW 12,000 FEET WITH NO
SIGNIFICANT WEATHER AND/OR OBSTRUCTIONS TO VISIBILITY.

OHZ001>008-015>018-024>027-034-035-043-044-251200-
   NORTHWEST OHIO

CITY           SKY/WX    TMP DP  RH WIND       PRES   REMARKS
DEFIANCE       CLOUDY    70  57  63 S12       30.01R
FINDLAY        CLOUDY    72  55  55 S17       30.05R
TOLEDO EXPRESS CLOUDY    67  54  63 S6        30.01S
TOLEDO EXEC    CLOUDY    70  53  54 S13       30.03S
LIMA           CLOUDY    70  55  59 S14       30.06R
$$

OHZ009>014-019>023-028>033-038-089-251200-
   NORTHEAST OHIO

CITY           SKY/WX    TMP DP  RH WIND       PRES   REMARKS
CLE-HOPKINS    MOCLDY    69  53  56 S10       30.10S
CLE-LAKEFRONT  CLEAR     69  52  54 S13       30.07S
CUY CO. ARPT   PTCLDY    70  55  60 S14       30.10
LORAIN-ELYRIA  CLEAR     65  54  67 S10       30.08S
ASHTABULA      SUNNY     62  48  60 S9        30.13S
AKRON-CANTON   PTCLDY    64  52  64 S9        30.15R
WOOSTER        NOT AVBL
MANSFIELD      MOCLDY    67  54  63 S12       30.12R
YOUNGSTOWN     MOSUNNY   63  51  65 S8        30.15R
$$

OHZ042-051>053-060>062-070>072-077>081-251200-
  SOUTHWEST OHIO

CITY           SKY/WX    TMP DP  RH WIND       PRES   REMARKS
CINC-COVINGTON CLOUDY    68  57  68 S8        30.11R
CINC-LUNKEN    CLOUDY    65  57  75 CALM      30.12R
HAMILTON       LGT RAIN  71  58  63 VRB6      30.11R
DAYTON         NOT AVBL
WRIGHT-PAT AFB CLOUDY    69  56  62 S9        30.10R
DAYTON GENERAL CLOUDY    69  56  62 S13       30.11R
WILMINGTON     CLOUDY    69  53  56 S13       30.13R
$$

OHZ036-037-039>041-045>050-054>059-063>069-073>076-082>088-251200-
  CENTRAL AND SOUTHEAST OHIO

CITY           SKY/WX    TMP DP  RH WIND       PRES   REMARKS
COLUMBUS       CLOUDY    68  54  60 S5        30.12R
OSU AIRPORT    CLOUDY    67  54  63 S9        30.12R
BOLTON FIELD   NOT AVBL
RICKENBACK AFB NOT AVBL
NEWARK         MOCLDY    65  55  70 S5        30.14R
MARION         CLOUDY    67  54  63 S12       30.11R
LANCASTER      CLOUDY    65  55  70 SE7       30.15R
ZANESVILLE     PTCLDY    63  53  70 S7        30.16R
NEW PHILLY     CLEAR     64  54  69 SE5       30.17R
$$


USA.gov is the U.S. government's official web portal to all federal, state and local government web resources and services.